GFSFLT2_250_spd_000.txt.gz
Wind_Speed
89 89 92 93 92 94 97 97 99 99 101 103 102 102 101 100 98 93 80 72 66 64 66 66 66 63 65
96 98 100 102 101 101 105 105 105 107 106 103 105 107 104 100 92 84 74 71 67 66 65 66 65 65 70
102 106 106 108 107 107 108 110 108 110 108 107 105 104 102 96 87 76 71 68 67 65 65 64 66 72 73
103 97 105 110 109 104 101 105 104 103 106 105 103 100 96 88 77 73 69 65 68 67 64 64 69 72 75
92 91 91 94 98 98 94 95 93 93 95 103 95 87 83 81 70 67 65 66 70 70 67 66 71 74 76
88 86 88 87 88 88 87 90 82 85 90 91 89 83 77 74 68 66 66 67 68 71 71 69 73 75 80
80 78 79 81 83 82 82 83 81 80 82 83 82 77 74 71 69 66 64 67 68 72 69 67 72 80 83
73 69 73 72 73 76 77 77 77 74 77 78 75 69 73 72 71 66 65 66 69 69 66 70 78 81 83
70 68 64 64 64 64 67 70 66 68 71 71 60 63 70 71 72 70 69 68 69 67 70 73 77 82 89
58 56 57 58 56 55 57 56 54 58 58 54 56 57 67 68 72 69 66 69 71 68 70 74 81 86 88
53 54 50 46 48 46 45 46 48 50 51 49 51 56 62 67 70 67 68 66 67 69 72 78 82 87 91
49 47 44 43 44 43 43 43 41 42 44 45 49 54 56 64 69 68 69 69 70 71 77 81 83 88 94
45 42 40 40 40 40 39 38 40 40 40 43 46 49 53 60 65 64 68 68 70 75 78 82 86 91 96
39 38 37 38 38 38 37 37 36 37 39 41 43 47 51 57 60 60 65 70 72 77 82 86 89 92 90
34 32 31 31 34 34 35 34 34 36 37 42 47 50 54 59 64 69 70 73 79 82 85 88 87 84 86
27 26 26 27 27 29 32 33 36 39 43 46 50 54 58 59 59 64 71 75 79 84 86 84 81 81 85
22 22 24 24 27 31 32 35 36 41 45 48 49 51 54 59 64 68 74 75 74 74 75 80 80 80 80

GFSFLT2_250_spd_003.txt.gz
Wind_Speed
111 111 114 116 116 117 113 108 106 106 106 109 110 107 105 102 101 99 97 95 96 96 94 93 90 78 67
105 109 109 111 107 108 107 104 103 103 104 106 107 107 105 103 102 102 96 97 99 98 94 89 85 74 64
99 100 104 110 105 103 102 103 102 98 100 99 101 102 101 99 100 100 100 97 95 96 87 84 76 69 64
91 85 91 93 91 92 90 94 93 93 94 93 96 96 96 96 95 96 98 94 90 86 82 75 71 68 63
85 83 82 83 82 84 84 87 87 88 88 90 90 87 89 91 91 95 96 92 86 80 76 73 71 70 66
76 75 76 76 78 77 77 79 80 84 85 83 85 83 82 83 87 87 86 83 78 75 71 72 71 69 68
69 71 70 76 76 77 77 74 72 75 78 78 81 78 79 77 78 78 75 73 71 71 71 71 70 68 70
63 62 67 69 69 68 68 67 66 69 72 70 74 73 72 69 73 70 69 67 67 70 70 70 69 70 72
59 56 57 62 64 61 60 56 58 64 67 67 67 67 69 66 70 66 67 66 67 66 68 69 67 70 69
58 55 50 51 52 52 54 51 51 56 62 58 59 61 61 62 63 57 59 60 64 64 68 69 69 70 73
57 53 49 46 46 46 46 45 47 49 51 48 51 50 48 47 47 49 54 57 62 65 68 71 72 69 66
52 50 45 41 40 40 40 39 41 41 41 40 39 40 41 46 48 49 53 55 56 61 66 68 68 68 70
45 40 37 35 35 35 34 34 34 33 33 33 35 35 38 40 41 43 47 49 56 62 63 70 70 72 74
36 32 32 30 28 28 28 27 27 27 28 30 30 31 31 34 36 40 45 48 51 54 60 67 70 72 73
32 33 30 29 26 24 23 22 24 27 27 26 26 28 31 33 35 38 41 44 48 53 58 63 67 72 77
27 27 27 25 23 20 19 20 23 22 22 24 27 28 29 31 33 36 42 48 54 59 63 70 73 75 78
23 23 21 19 17 17 17 17 17 20 22 23 24 28 31 35 40 44 50 54 59 63 66 68 72 76 77

GFSFLT2_250_spd_006.txt.gz
Wind_Speed
113 109 104 102 103 104 106 104 107 109 109 108 106 104 103 100 100 105 107 100 97 93 90 90 90 87 86
104 101 97 95 90 92 94 94 95 96 99 97 98 97 93 94 95 97 98 95 96 87 92 88 88 84 86
92 93 92 93 88 87 86 87 88 91 92 93 93 94 92 89 88 87 89 90 90 85 94 88 85 83 82
90 86 85 89 89 85 83 85 83 85 85 86 87 90 89 87 87 85 87 88 83 86 85 87 80 79 77
85 79 77 80 83 82 76 78 79 80 80 81 81 81 81 82 81 80 79 78 80 80 82 82 75 71 70
78 75 75 77 78 77 75 73 70 73 72 72 74 74 76 76 75 75 72 70 74 77 78 76 72 70 71
70 70 68 70 69 70 71 71 72 73 68 67 69 70 72 72 72 68 67 69 70 72 71 70 68 67 66
69 60 61 64 62 62 63 62 64 70 66 62 63 62 66 67 66 64 64 64 62 64 65 65 62 63 63
67 60 54 57 57 54 53 52 56 61 61 58 62 58 59 60 58 59 60 57 58 58 57 59 60 60 61
58 55 53 49 48 47 47 47 50 53 53 50 54 53 53 51 52 55 56 54 55 55 54 56 58 59 57
55 50 47 46 44 41 41 45 45 49 45 44 46 44 45 45 45 47 48 51 52 52 52 52 54 56 58
51 45 42 39 37 36 35 37 40 40 39 39 39 38 38 37 38 40 39 42 44 45 46 49 51 55 58
42 40 35 33 33 29 28 29 32 34 34 33 33 32 32 32 31 34 34 36 38 40 43 44 47 50 53
35 31 30 29 25 23 23 24 25 26 27 28 27 26 27 28 29 30 32 34 34 38 42 45 47 51 53
27 26 25 21 21 22 21 20 21 22 23 24 24 22 23 25 27 29 29 31 31 32 34 36 40 43 47
21 19 18 18 18 17 16 16 18 20 21 21 21 23 24 23 22 23 25 26 28 31 33 36 39 42 45
17 17 14 13 12 11 12 14 15 16 18 19 19 17 17 18 18 20 22 24 27 30 33 38 43 47 51

GFSFLT2_250_spd_009.txt.gz
Wind_Speed
108 105 102 100 100 98 99 101 99 97 99 100 100 100 101 98 96 93 93 91 92 90 90 95 91 88 91
99 97 93 92 90 91 90 90 90 91 90 91 90 90 89 85 85 84 85 84 83 82 83 90 89 79 81
82 88 83 82 80 81 82 80 80 81 82 84 84 84 82 78 77 78 77 74 78 78 78 83 84 80 80
81 77 76 79 76 76 74 74 76 77 76 76 75 72 72 73 73 73 73 72 73 75 75 79 79 82 75
74 71 71 71 72 72 66 69 71 72 71 71 67 62 64 65 68 69 69 67 65 68 72 76 77 78 74
76 74 71 69 67 65 64 62 62 70 63 66 60 58 60 60 60 61 61 59 60 62 64 69 73 74 77
72 71 66 65 59 60 59 57 57 64 58 63 59 57 56 56 55 53 53 53 53 55 60 62 69 73 74
68 62 61 60 55 55 55 52 54 58 55 58 55 53 51 51 50 49 49 51 54 54 55 59 62 67 70
61 57 52 51 51 49 47 48 51 50 48 52 49 47 45 43 44 44 45 48 49 51 54 57 59 62 64
50 49 48 45 44 43 43 43 44 41 40 45 45 42 42 41 39 37 42 46 47 47 50 51 54 57 60
45 42 41 40 38 38 37 35 35 34 34 40 42 40 39 33 32 35 40 42 42 44 45 49 50 52 53
40 37 35 33 31 30 29 29 28 29 30 36 35 33 33 30 31 34 35 34 35 39 42 46 49 51 54
33 29 27 25 24 22 23 25 25 25 26 28 28 29 28 26 27 27 28 30 32 36 38 45 46 48 51
25 22 19 18 17 18 19 19 20 20 21 22 23 23 23 23 24 25 25 28 31 32 34 38 41 44 47
18 15 13 13 14 15 16 18 18 19 20 19 20 20 21 21 21 22 23 24 26 30 34 37 39 41 44
13 11 9 9 11 13 14 16 16 17 17 17 18 18 19 20 20 21 23 24 25 27 29 33 36 41 44
8 8 7 9 10 12 14 13 13 12 14 16 16 17 17 18 19 18 20 22 24 26 29 30 32 35 39

GFSFLT2_250_spd_012.txt.gz
Wind_Speed
116 109 107 102 100 97 94 94 94 96 94 94 93 93 95 96 95 92 91 89 88 92 91 92 93 85 84
105 101 97 96 89 87 90 89 86 88 87 84 83 83 83 84 83 83 80 80 81 83 82 85 86 79 82
96 93 90 90 82 80 82 83 81 80 78 75 76 77 76 72 72 71 70 73 73 76 74 76 78 78 83
94 89 88 87 78 75 74 76 75 74 71 68 69 66 67 67 66 64 63 65 68 68 68 69 71 76 80
92 87 86 83 79 75 69 72 72 70 69 66 62 59 57 57 58 57 57 57 58 60 64 66 66 70 76
83 78 77 78 71 68 66 65 67 71 57 59 55 54 53 46 47 48 48 52 51 51 55 60 64 65 71
71 70 68 69 63 61 57 55 58 59 47 56 49 49 45 42 43 43 41 44 45 46 51 55 59 65 67
69 61 60 57 54 53 49 47 47 47 47 49 44 44 41 40 37 36 37 42 45 46 47 50 57 61 65
60 57 51 48 47 45 44 39 39 41 41 41 38 39 39 35 32 33 36 40 43 45 45 50 54 59 63
54 48 46 41 39 39 38 34 33 33 33 33 35 35 35 33 31 32 33 35 39 43 46 47 50 50 57
49 45 40 36 34 32 30 28 27 27 30 33 33 33 33 32 31 33 32 33 37 41 45 45 45 48 51
42 38 35 31 27 25 24 24 25 27 30 30 31 31 31 28 28 30 31 32 37 38 38 41 44 47 51
34 30 26 22 20 20 20 21 21 22 24 24 26 25 23 25 28 28 29 31 32 34 37 39 42 45 49
28 24 21 19 18 17 17 17 17 18 19 19 19 19 20 22 24 25 26 27 29 31 33 36 38 40 43
23 19 18 16 15 14 14 14 14 13 14 15 16 17 18 21 21 22 23 26 29 30 31 34 37 40 43
18 15 14 13 12 11 11 12 12 12 13 12 12 13 14 15 17 19 21 23 26 29 32 35 39 41 43
15 13 12 10 10 10 9 9 9 10 10 10 10 11 13 15 17 17 19 22 24 27 31 35 39 41 43

GFSFLT2_250_spd_015.txt.gz
Wind_Speed
135 133 124 113 107 104 102 99 96 95 95 95 95 95 91 88 87 86 85 85 86 88 94 98 98 92 99
123 113 107 103 97 92 89 89 88 91 90 86 86 88 85 83 81 80 78 76 76 77 82 86 92 97 90
107 102 96 95 89 88 86 86 86 85 81 79 79 80 80 75 74 72 70 68 70 69 71 76 82 90 93
102 94 89 89 87 84 84 83 81 78 73 72 73 72 72 70 68 67 63 62 63 63 64 67 73 81 89
93 87 84 83 83 82 76 73 74 69 61 67 61 63 66 63 62 60 58 57 57 58 59 61 67 75 80
86 80 79 81 78 73 68 65 66 57 54 62 48 55 56 54 54 52 51 52 53 57 59 59 62 67 75
78 76 72 73 69 66 60 55 54 51 49 46 42 45 42 43 44 47 48 49 51 53 55 57 59 63 68
76 71 65 63 59 56 53 49 44 42 39 35 36 36 38 39 40 41 43 45 46 48 52 55 58 62 66
71 64 59 54 49 49 45 41 37 36 33 29 28 29 30 32 34 37 40 42 43 46 49 51 55 59 62
64 56 51 47 46 42 38 35 32 32 29 25 25 26 26 29 32 35 38 41 44 47 48 50 53 53 57
55 50 46 43 41 38 33 29 27 27 24 22 22 23 25 28 29 32 35 39 41 41 42 45 49 52 55
47 42 40 38 35 31 27 23 21 18 17 17 17 19 21 24 25 28 32 35 36 37 39 42 45 49 51
39 36 33 31 27 24 21 19 17 15 13 13 14 16 17 18 20 25 27 30 32 32 35 38 44 48 49
33 30 27 25 22 19 16 14 12 11 10 10 12 15 17 19 22 24 25 27 30 32 33 37 43 47 47
27 23 21 19 17 15 14 11 10 8 7 6 8 10 14 15 16 20 23 24 26 28 31 35 40 43 46
20 18 16 15 14 12 10 10 9 8 8 8 9 10 12 13 15 18 23 26 28 29 31 34 36 40 44
17 15 13 12 11 11 10 9 8 6 5 4 6 9 10 12 15 17 20 23 26 29 33 37 39 39 42

GFSFLT2_250_spd_018.txt.gz
Wind_Speed
132 133 133 130 124 116 111 104 102 103 104 104 102 99 96 96 96 94 91 88 88 88 90 92 94 95 98
131 127 120 110 105 101 99 99 99 98 95 93 92 88 85 85 87 88 86 84 82 80 81 83 85 88 90
120 111 104 101 99 98 95 96 95 87 85 86 83 82 82 83 84 85 82 78 73 73 74 76 80 83 82
109 104 100 97 95 87 88 92 88 80 79 77 76 74 73 73 73 74 73 71 67 67 69 71 73 74 77
103 99 96 90 86 85 81 81 79 72 67 74 62 65 67 65 66 67 66 64 63 63 64 67 68 68 71
94 89 86 82 80 77 74 69 69 61 62 61 55 59 55 53 54 55 57 58 59 61 61 63 64 65 68
84 82 76 74 70 69 63 60 59 55 56 50 47 46 46 45 45 45 49 53 56 57 58 61 62 62 64
79 74 70 66 61 57 55 53 50 47 42 42 40 40 38 37 38 40 41 46 49 53 55 57 58 59 62
71 66 61 56 52 48 45 45 43 40 35 33 33 33 32 31 33 34 36 41 45 49 53 56 57 58 60
65 58 53 48 44 41 39 39 36 31 30 27 26 26 24 25 28 30 34 38 42 46 49 51 51 51 55
57 51 45 40 38 36 33 31 28 25 23 20 21 20 19 19 23 27 29 32 36 39 42 44 45 48 52
48 43 39 37 35 32 28 24 21 19 16 14 15 16 15 14 17 20 24 29 32 34 37 40 42 43 44
39 36 35 33 30 27 23 19 14 12 12 11 11 11 12 13 15 17 21 26 31 34 37 39 41 42 43
34 33 31 28 25 22 18 14 11 9 9 9 7 6 6 8 13 17 19 22 27 32 34 36 38 39 42
31 29 26 24 21 19 15 13 10 8 7 7 6 4 5 7 9 15 20 24 25 27 29 32 34 36 39
28 26 24 22 19 16 13 11 9 8 6 6 6 5 4 8 11 14 17 22 26 27 29 30 32 35 37
25 23 20 18 15 14 12 10 6 4 3 3 2 3 4 8 10 13 16 21 24 26 28 30 32 33 37

GFSFLT2_250_spd_021.txt.gz
Wind_Speed
122 126 130 133 135 136 132 127 122 121 117 115 115 113 110 106 105 102 101 100 100 100 100 97 97 99 99
128 130 131 127 121 113 110 110 108 106 103 102 99 95 93 92 93 93 93 93 91 91 90 89 89 88 88
130 121 113 109 104 104 101 100 97 94 92 88 85 83 85 85 84 85 84 84 81 81 81 80 80 81 82
114 104 102 101 98 94 91 93 87 86 82 81 80 80 77 76 78 78 78 77 76 74 75 75 76 76 76
101 99 97 93 90 87 83 81 85 78 76 77 71 69 69 68 68 69 69 68 67 67 67 68 71 73 72
96 91 87 85 81 78 75 74 75 68 70 66 63 62 60 58 57 59 60 60 57 58 59 61 65 70 74
86 84 79 76 74 73 68 64 63 62 62 57 55 52 52 51 50 51 51 50 48 49 51 55 61 66 70
81 76 74 70 65 62 59 58 58 54 54 49 50 46 44 44 42 42 42 40 40 41 46 51 57 61 61
73 69 65 61 57 54 52 51 51 46 46 42 40 37 34 34 33 31 31 31 32 34 39 42 44 49 55
66 59 55 51 49 47 45 42 42 38 37 35 32 27 24 25 25 24 23 23 25 27 29 33 37 44 51
56 51 47 45 42 38 36 35 32 31 29 26 23 19 18 18 18 17 16 17 17 19 23 28 35 43 49
48 45 42 39 36 33 31 28 27 25 23 20 16 13 13 12 14 11 11 13 14 16 18 24 32 38 43
41 37 35 34 31 30 29 25 21 20 18 14 11 7 7 8 11 10 12 12 15 17 20 23 24 28 32
33 31 31 30 28 27 25 21 17 16 13 10 8 4 4 7 9 12 13 14 15 17 19 22 25 29 32
30 29 28 28 27 25 22 18 14 11 10 7 4 2 4 8 9 11 14 15 15 16 20 22 27 30 34
26 26 26 25 24 21 19 16 11 9 7 5 3 1 3 8 12 14 15 17 18 19 21 24 27 29 31
24 23 23 21 21 20 18 13 11 7 5 4 2 3 5 7 11 14 16 17 21 23 24 25 25 28 30

GFSFLT2_250_spd_024.txt.gz
Wind_Speed
113 118 122 125 128 130 132 132 129 128 125 119 115 113 112 112 113 114 113 113 113 111 108 106 106 106 106
120 125 129 131 130 126 121 116 112 109 108 104 101 102 102 100 100 99 100 100 101 101 100 98 96 96 96
128 126 123 120 112 108 106 105 101 96 94 92 89 88 86 84 85 87 87 85 86 87 87 88 89 89 89
121 111 104 100 99 95 94 93 89 87 86 82 81 78 77 77 78 78 79 78 78 79 80 81 81 82 82
101 98 95 91 88 88 85 83 82 77 78 75 73 72 72 71 73 73 73 72 70 69 70 71 72 75 75
93 89 87 84 82 79 76 73 74 65 70 68 63 66 63 62 60 61 61 60 59 59 60 62 64 66 66
86 85 82 78 74 72 67 65 65 62 62 61 52 58 52 50 49 49 48 48 49 49 49 51 54 56 59
80 77 74 72 69 65 62 59 57 54 54 50 46 47 43 43 43 42 42 42 41 41 40 41 44 47 52
72 71 68 63 61 58 55 53 49 46 44 42 39 36 36 36 35 35 35 35 34 34 33 34 37 40 45
65 61 58 55 52 49 48 45 41 38 37 33 32 31 29 30 29 27 26 24 24 25 26 28 30 35 40
60 55 50 46 42 40 38 36 33 32 32 27 27 26 25 25 22 20 18 18 17 17 18 21 23 28 33
51 45 41 38 36 34 30 28 28 27 24 22 21 20 21 19 17 15 14 12 10 9 10 14 18 23 30
41 38 35 30 28 27 25 24 22 20 20 19 18 17 16 16 13 10 9 6 5 5 7 9 17 21 28
37 32 30 27 25 23 22 21 20 19 18 16 15 14 13 12 11 6 6 6 5 8 11 14 15 20 25
31 29 26 26 24 22 21 20 18 17 15 13 11 10 10 9 8 6 6 6 6 9 11 17 21 23 24
29 27 26 24 24 22 19 18 16 14 13 11 9 9 7 6 6 5 5 7 9 10 13 15 20 25 29
27 27 26 26 24 22 18 16 14 13 11 9 7 7 6 5 5 5 5 8 11 12 15 16 18 23 28

GFSFLT2_250_spd_027.txt.gz
Wind_Speed
109 115 118 120 122 124 123 124 123 124 123 121 121 118 116 117 115 114 115 116 115 115 114 114 114 114 116
118 122 124 128 126 122 118 114 109 106 107 106 105 104 105 105 104 103 103 104 105 105 105 105 104 104 105
125 124 119 115 108 105 103 101 98 95 96 94 92 93 93 93 92 92 91 91 91 93 93 94 93 93 93
118 110 105 102 99 94 92 90 86 85 82 82 83 81 79 78 80 81 80 81 80 81 82 82 82 83 83
104 100 96 92 88 86 81 81 79 73 76 76 72 72 71 71 74 73 73 73 73 73 72 73 74 76 77
95 92 91 83 82 77 74 71 72 64 68 69 63 65 62 62 62 64 64 62 61 62 63 63 64 66 69
90 87 84 78 75 72 68 64 60 60 63 57 56 55 54 53 54 54 51 52 52 53 54 55 56 58 61
82 79 74 71 67 64 62 58 51 50 54 50 46 43 44 47 45 42 44 43 43 45 46 47 48 50 53
74 71 66 63 61 60 56 52 47 42 42 41 40 37 38 37 36 38 36 36 37 37 37 38 39 41 47
66 62 60 56 52 50 49 47 42 41 36 35 34 33 31 31 30 31 30 28 28 29 31 33 33 35 39
60 56 52 49 46 43 42 42 40 34 35 31 27 26 27 26 25 24 23 22 22 23 25 27 29 31 34
54 50 46 42 39 38 38 37 34 32 29 25 23 23 23 22 21 20 18 17 17 18 20 22 24 25 27
46 43 40 37 34 34 33 32 32 29 25 22 21 20 20 20 19 16 14 13 11 12 15 16 17 18 22
40 37 35 34 33 30 30 27 26 25 22 20 19 18 18 18 17 13 10 10 7 7 8 10 12 15 19
37 37 36 33 31 28 27 27 26 22 19 17 16 15 15 16 14 9 6 6 3 1 3 6 11 17 22
38 37 34 31 28 26 24 24 22 19 15 13 13 12 13 13 11 6 4 3 1 6 7 9 11 19 21
36 35 33 32 29 26 20 21 21 17 14 11 10 10 12 11 8 5 4 2 4 10 9 13 12 20 25

GFSFLT2_250_spd_030.txt.gz
Wind_Speed
108 113 116 121 123 122 119 115 112 113 113 111 109 108 109 110 112 112 112 113 112 113 115 118 120 123 124
117 122 126 127 122 115 110 106 103 101 99 97 98 98 98 97 97 99 100 100 101 101 102 102 101 103 105
126 128 122 116 107 102 98 95 92 89 87 90 88 86 86 85 86 88 88 90 91 92 92 93 93 94 95
125 117 108 102 96 91 88 85 81 78 82 78 77 76 75 76 76 76 77 78 79 80 83 83 83 84 86
111 103 97 92 90 87 81 79 75 72 74 68 67 68 67 66 67 69 69 68 68 69 72 73 75 76 78
101 97 93 87 84 79 76 70 71 64 66 62 61 59 59 58 59 60 59 58 58 59 61 64 66 67 70
96 91 87 81 77 71 67 61 58 59 63 54 54 49 48 51 52 50 49 49 51 53 55 57 59 62 65
88 84 78 72 67 62 60 57 48 48 53 49 47 40 41 40 43 44 42 42 44 46 47 49 52 54 58
80 74 68 62 59 58 54 50 45 40 43 42 43 38 39 36 38 38 37 36 38 40 43 44 46 48 51
70 63 59 55 51 48 48 47 42 43 38 38 38 37 35 34 32 31 30 30 32 33 34 36 38 41 43
63 58 52 49 46 44 43 44 43 38 37 35 33 31 31 28 26 25 24 25 25 27 29 29 30 32 33
56 51 48 45 42 41 41 41 39 37 36 32 30 28 26 23 22 20 20 19 20 22 23 24 25 26 27
50 48 45 44 42 39 38 38 37 34 31 30 29 24 20 19 17 16 17 16 16 17 18 19 20 20 20
46 45 44 43 40 36 34 33 30 28 27 26 25 20 16 15 15 14 15 12 12 14 15 14 16 16 16
45 45 42 39 37 33 29 30 31 24 23 23 20 16 13 12 11 12 11 9 10 12 12 8 8 8 8
43 42 41 38 34 30 30 28 28 24 21 19 17 12 10 9 7 9 6 7 7 7 4 4 2 3 8
40 40 38 38 37 33 31 28 25 23 18 16 13 9 6 7 5 6 4 6 5 2 4 6 6 8 14

GFSFLT2_250_spd_033.txt.gz
Wind_Speed
107 111 114 118 122 126 125 121 117 114 108 104 103 105 102 102 103 103 104 104 104 104 106 107 109 111 116
111 117 122 128 131 126 116 111 102 99 97 97 98 95 94 94 95 95 95 94 95 95 95 95 96 98 101
119 124 127 129 120 113 104 98 94 90 88 89 86 84 84 84 85 84 84 85 85 85 85 86 87 88 90
127 129 122 114 106 98 93 89 84 82 83 81 76 75 73 74 75 76 76 75 74 73 74 75 76 79 81
128 117 109 101 94 89 84 82 77 74 78 71 69 68 65 65 66 69 70 67 65 64 66 67 69 71 72
112 102 96 91 89 84 80 75 74 65 72 63 64 59 60 58 57 57 59 61 59 56 57 60 62 64 67
100 93 91 85 83 81 75 69 63 60 63 59 56 51 50 47 48 50 52 51 49 49 50 52 55 57 59
94 90 83 80 76 73 68 65 55 48 51 50 50 43 45 42 41 41 42 43 43 43 45 47 48 50 53
88 82 78 71 67 65 60 54 51 43 45 44 44 38 41 38 36 35 34 36 38 39 40 42 43 44 47
81 75 69 63 57 54 51 50 47 44 42 40 38 39 31 34 32 32 32 33 33 35 36 37 38 41 43
74 68 62 55 48 45 44 44 47 38 40 40 37 34 33 29 30 28 29 29 30 31 32 33 34 35 39
66 61 55 49 44 41 42 40 41 39 36 35 34 31 29 28 27 25 25 25 25 26 27 28 28 29 31
59 52 49 47 45 38 35 35 36 35 32 32 31 29 27 26 24 21 20 22 21 21 23 24 22 22 23
53 48 46 40 39 36 31 28 28 32 33 28 27 24 23 23 18 16 18 17 18 18 18 16 16 17 17
49 45 42 40 40 41 37 29 29 27 30 27 23 19 20 18 14 14 15 14 15 14 14 16 15 13 8
44 43 44 44 41 38 38 35 28 30 28 24 20 14 17 13 11 11 11 11 11 11 13 12 9 6 5
46 47 46 43 39 35 31 31 28 26 24 20 17 11 13 11 7 7 7 8 8 8 8 5 5 4 2

GFSFLT2_250_spd_036.txt.gz
Wind_Speed
119 115 116 112 113 116 122 127 129 128 124 115 112 109 103 101 100 100 99 98 97 96 97 97 98 98 99
112 108 112 118 120 127 131 132 125 116 109 105 104 96 95 93 92 92 92 91 90 90 90 89 89 90 91
105 113 118 125 130 133 130 119 110 103 97 96 92 86 87 85 85 83 82 81 81 80 80 80 81 82 84
115 118 125 133 134 122 113 105 98 90 89 89 79 80 76 75 76 75 74 72 70 70 70 69 70 73 75
124 129 134 129 117 107 97 91 89 75 84 83 70 75 68 68 65 67 67 66 65 63 62 63 63 67 69
131 132 120 111 102 96 88 84 80 70 75 75 65 65 63 61 59 58 58 58 59 60 58 55 56 58 63
128 115 107 100 94 90 83 80 74 68 69 63 58 55 56 56 54 52 52 52 53 54 55 52 50 51 54
112 103 97 91 85 82 78 74 67 58 56 55 52 50 51 53 50 49 47 47 47 47 47 47 46 46 48
101 95 89 84 80 75 69 64 62 55 48 47 45 48 45 48 45 46 44 41 42 42 40 39 39 40 43
93 86 81 77 71 66 62 58 54 58 43 45 40 44 39 42 40 40 39 39 36 36 35 35 36 38 39
86 80 73 68 62 55 50 50 51 53 46 42 36 35 41 35 33 36 36 34 30 32 34 34 35 36 37
78 72 65 58 53 49 44 43 38 46 46 36 37 34 38 38 35 32 28 32 31 27 31 33 34 33 33
70 63 58 53 49 45 37 38 35 39 45 40 37 35 37 35 31 28 31 23 28 29 30 29 29 30 31
64 58 54 50 44 44 41 39 37 35 42 43 36 35 34 32 31 25 26 29 23 24 26 25 24 24 25
58 55 52 51 49 49 46 43 41 37 34 39 36 34 32 25 25 27 24 24 23 23 22 20 19 19 20
52 54 55 54 50 46 43 41 39 36 33 30 32 28 25 24 20 20 22 20 19 21 17 16 17 17 14
54 57 54 50 46 41 38 36 34 32 27 25 23 22 19 19 18 18 18 18 17 15 14 17 13 10 6

GFSFLT2_250_spd_039.txt.gz
Wind_Speed
107 112 116 120 120 118 113 110 115 121 125 127 127 125 115 108 105 103 103 99 94 91 89 90 90 90 91
113 119 122 120 117 109 115 120 125 130 130 123 116 108 102 97 96 95 92 91 87 84 83 82 83 83 84
118 121 119 117 113 117 123 129 133 125 116 107 106 99 95 91 88 85 83 81 81 78 78 77 76 76 77
119 118 114 115 120 125 131 133 124 107 102 102 95 88 85 81 81 78 75 74 71 70 68 67 67 69 71
119 113 116 121 127 132 128 114 110 94 90 93 80 79 77 75 73 70 69 66 64 61 59 57 56 58 63
114 118 123 129 132 125 110 103 98 86 79 84 71 70 68 67 66 64 61 60 58 57 56 54 52 51 52
120 127 131 131 115 108 100 93 84 77 72 77 63 62 60 60 58 58 57 55 54 53 51 51 51 50 50
130 132 123 108 103 97 88 85 79 68 62 68 56 55 53 53 55 54 52 51 49 47 46 46 46 46 46
130 117 107 99 91 86 82 74 73 64 51 54 47 50 49 47 51 49 47 45 45 43 43 43 43 43 43
111 104 94 87 82 75 70 65 63 63 49 51 42 37 49 35 44 45 43 38 41 39 39 40 39 40 41
101 92 84 78 71 65 58 54 55 55 51 49 49 39 41 45 36 40 41 36 36 36 36 36 37 36 36
88 82 76 69 62 57 49 46 44 48 52 49 53 47 46 46 42 33 35 33 33 35 33 31 30 33 34
81 75 68 61 56 54 49 49 48 48 51 53 54 50 46 46 43 37 36 26 27 29 28 32 32 31 30
74 68 62 57 53 55 56 53 49 44 42 49 50 44 40 40 38 32 31 29 26 22 24 27 27 27 29
64 61 56 57 58 59 55 49 45 43 35 38 41 34 33 32 30 29 26 23 23 25 26 24 24 25 26
59 57 57 60 59 54 49 44 41 36 33 30 25 27 26 22 20 21 23 22 21 22 22 23 22 21 23
58 60 60 55 50 48 42 39 36 31 27 24 22 21 17 16 15 15 15 16 18 18 20 20 18 18 19

GFSFLT2_250_spd_042.txt.gz
Wind_Speed
96 99 101 105 109 113 116 119 124 126 123 114 111 114 118 120 121 121 117 111 106 101 97 94 94 94 94
100 103 107 111 114 117 121 126 125 119 114 119 121 123 119 117 109 102 102 98 95 90 87 84 82 82 83
103 109 113 118 119 123 124 121 115 118 120 126 123 117 108 100 98 94 91 88 84 83 79 77 76 75 76
109 114 119 123 125 123 118 118 124 124 119 121 109 102 97 92 90 86 83 79 77 74 71 69 69 68 68
115 119 124 126 124 117 121 124 127 115 109 108 97 92 84 83 81 78 73 71 68 65 63 62 61 62 61
119 122 124 118 116 122 127 128 125 100 93 96 85 83 77 73 70 68 64 61 59 57 56 55 55 55 54
122 119 112 119 123 127 129 120 106 95 82 88 78 71 65 63 61 61 56 55 54 52 52 52 53 51 50
118 115 121 125 126 125 113 106 99 85 71 72 70 65 59 53 52 54 50 51 51 49 49 49 49 49 49
120 123 125 124 115 104 100 90 86 82 63 62 61 56 58 50 46 48 46 45 44 43 44 44 44 44 45
127 126 121 108 101 91 82 78 72 72 57 57 53 47 56 47 40 44 45 45 44 42 41 42 42 40 39
127 116 104 98 88 81 73 64 61 60 55 56 58 55 52 57 44 43 47 46 43 40 39 41 40 37 37
106 101 92 84 79 73 63 57 52 54 59 58 61 58 54 52 51 43 43 44 41 37 38 37 35 34 32
92 85 80 76 69 64 57 54 53 55 57 55 55 51 45 45 43 35 37 36 34 33 35 31 32 29 30
80 77 72 67 61 58 60 59 57 53 47 47 46 41 35 35 34 28 31 24 29 27 28 26 29 29 28
70 66 63 62 62 62 60 56 51 48 39 34 38 30 24 23 24 21 22 20 20 20 22 20 21 23 23
61 58 61 62 60 55 51 47 44 38 33 27 22 22 19 18 19 15 13 12 16 16 16 16 17 19 20
58 60 58 55 51 45 40 36 33 27 23 19 18 15 14 14 11 10 12 11 11 13 14 15 15 16 16

GFSFLT2_250_spd_045.txt.gz
Wind_Speed
92 95 98 100 102 104 105 108 112 114 115 116 118 120 124 126 121 115 119 121 124 125 123 121 117 113 111
95 97 100 101 103 105 109 112 113 116 118 120 124 127 125 115 118 120 121 122 120 114 108 101 98 97 94
95 98 100 104 105 107 108 112 115 118 121 126 127 118 121 119 117 116 109 104 102 95 89 87 84 82 80
95 98 101 104 105 106 109 116 121 124 128 120 119 120 121 115 107 98 96 93 87 84 81 78 75 73 72
96 99 103 105 108 112 115 120 128 120 117 121 120 117 109 97 93 90 87 84 79 76 71 68 64 64 64
98 101 105 109 112 116 120 114 115 126 120 118 108 105 96 89 80 80 80 75 69 66 63 59 56 56 56
103 108 109 115 117 111 111 117 121 120 111 102 98 97 85 81 72 68 68 66 60 58 57 53 50 50 50
112 114 114 109 109 114 117 116 115 107 93 90 89 85 79 74 60 54 57 59 54 52 51 49 46 44 45
111 106 108 112 114 113 111 103 99 96 85 78 77 72 70 70 53 45 48 55 56 52 48 46 44 42 44
109 112 114 113 109 101 95 91 86 83 76 72 64 57 63 64 49 45 54 57 60 57 52 51 48 44 45
115 115 114 106 98 93 84 77 75 70 63 61 61 55 54 65 54 49 52 54 58 52 51 50 48 44 46
113 108 100 94 86 82 77 70 63 58 59 57 59 59 58 55 57 46 46 49 48 44 44 44 42 42 45
100 94 86 80 75 71 68 63 61 58 58 57 55 52 47 44 44 39 42 40 42 39 38 37 37 38 39
87 80 76 71 65 63 66 64 58 51 45 49 47 42 35 34 36 33 35 33 36 34 32 30 30 35 33
72 69 65 63 62 60 57 54 47 43 35 35 36 30 26 26 27 26 26 25 26 26 24 21 26 30 28
62 59 61 60 57 52 45 41 36 32 28 25 24 24 20 21 21 20 18 17 16 15 17 18 24 27 27
56 59 58 54 48 43 37 32 29 25 22 19 18 17 17 17 14 11 10 9 12 15 19 19 21 22 24

GFSFLT2_250_spd_048.txt.gz
Wind_Speed
81 84 87 90 93 95 97 97 99 101 102 103 104 105 105 106 107 108 110 112 115 118 121 125 128 123 120
80 81 82 85 89 92 95 98 101 103 104 105 105 106 107 107 108 111 114 117 122 128 126 118 118 123 125
74 75 77 81 84 87 91 97 101 104 105 105 105 106 108 111 114 117 122 123 119 122 123 121 116 111 104
72 73 77 82 85 87 91 98 101 105 106 107 110 113 116 120 119 116 115 116 120 122 114 104 99 94 89
79 82 85 88 91 95 97 100 106 109 112 114 118 112 111 113 114 115 112 106 103 104 99 90 85 82 78
88 90 93 96 99 101 101 104 108 114 105 103 110 112 115 114 109 100 92 88 88 89 87 77 76 72 67
96 98 99 101 101 102 101 98 102 107 106 105 110 109 105 100 94 83 75 73 76 79 78 70 65 62 57
103 103 101 100 98 97 100 103 107 109 106 96 96 96 94 91 80 71 66 65 66 69 70 64 57 54 51
100 101 101 102 102 102 102 100 100 98 95 84 84 80 83 83 75 62 57 56 58 62 64 59 53 51 53
106 107 108 107 105 99 93 90 87 84 83 78 77 68 71 72 64 53 51 54 58 60 61 56 54 55 59
114 113 111 106 98 92 85 78 76 74 71 67 70 65 61 69 64 53 52 58 61 61 61 57 55 55 57
112 106 100 95 89 82 75 71 67 61 66 65 66 63 62 62 61 50 48 52 55 55 52 48 46 47 49
98 94 89 83 75 72 68 65 67 61 59 61 59 55 53 52 50 45 45 42 46 44 44 43 40 42 45
87 82 76 72 68 65 66 64 60 54 49 51 46 43 40 41 41 37 37 36 36 33 32 33 34 36 38
70 67 64 63 62 61 58 52 47 43 40 39 35 34 34 32 30 28 27 27 27 26 26 27 29 30 29
59 57 58 59 57 53 48 45 41 36 32 30 28 27 25 22 21 21 22 23 23 20 17 19 22 22 24
52 54 53 52 49 45 42 37 33 29 25 23 22 20 18 17 17 16 15 16 15 15 15 15 17 20 22

GFSFLT2_250_spd_051.txt.gz
Wind_Speed
77 82 83 87 89 89 89 88 88 89 88 88 87 87 88 89 90 92 95 98 101 103 103 105 105 106 106
83 85 85 85 82 82 83 84 84 85 85 85 86 87 87 89 91 93 97 100 103 105 105 104 106 108 108
87 83 81 82 80 80 82 85 88 90 90 90 91 92 93 95 95 100 102 103 104 106 108 111 113 115 116
81 81 83 87 89 90 93 98 98 100 99 96 99 99 102 102 104 106 109 110 110 112 113 116 117 116 112
86 89 93 95 99 101 101 101 103 103 101 100 97 98 100 103 105 107 108 108 107 108 110 113 115 116 113
95 96 98 101 101 101 100 97 94 101 99 103 102 105 108 110 111 109 106 106 105 105 105 104 102 100 97
98 100 101 101 100 101 103 101 104 107 104 104 104 105 105 106 104 98 92 87 83 84 85 88 88 86 82
102 101 102 104 106 106 106 105 106 103 102 94 90 92 94 96 92 82 74 71 70 72 75 77 77 76 71
103 107 110 111 111 107 103 100 97 96 95 83 83 79 80 83 78 68 62 62 63 62 64 65 67 64 58
110 113 113 111 107 104 98 91 86 82 81 73 78 73 70 74 69 59 58 61 63 61 59 60 60 57 51
115 114 113 107 101 94 87 81 75 71 69 65 70 69 66 68 68 56 54 56 59 57 55 55 56 56 54
114 108 101 96 90 84 78 73 66 62 65 63 62 60 58 56 55 48 48 46 47 45 45 46 47 47 48
96 92 87 80 75 72 69 64 64 63 59 55 52 49 47 45 39 38 36 36 34 33 35 36 37 39 40
79 76 71 68 65 63 63 64 60 57 50 46 45 40 38 35 32 30 29 28 28 28 28 28 29 31 32
64 63 61 58 57 59 58 55 52 49 44 41 37 35 33 31 29 27 25 23 21 21 22 22 23 23 24
55 53 52 54 55 52 49 46 45 42 38 34 33 30 28 27 25 22 20 19 18 17 17 17 16 17 17
47 48 50 50 48 45 41 40 37 34 32 29 28 26 24 23 20 18 17 15 14 13 13 14 16 16 17

GFSFLT2_250_spd_054.txt.gz
Wind_Speed
84 82 83 85 87 91 91 93 94 95 91 86 83 82 83 84 84 84 85 87 88 88 88 88 89 92 95
82 83 85 88 93 95 97 98 95 92 91 91 90 89 88 88 87 88 91 94 95 96 96 97 97 96 96
85 88 91 94 97 100 96 94 95 98 97 94 93 93 93 92 91 91 91 94 95 97 100 103 105 105 103
89 92 95 98 98 93 95 99 100 102 101 98 96 96 96 96 98 98 98 99 99 101 104 106 109 111 110
95 97 98 98 98 101 101 101 101 101 101 106 104 105 106 107 105 104 102 101 101 102 104 107 109 110 109
98 96 100 102 103 104 101 99 102 109 110 116 115 117 113 111 107 103 99 95 93 94 97 100 103 105 105
95 98 100 104 102 103 106 109 112 116 118 121 118 115 106 100 96 90 85 80 77 78 82 86 88 90 91
100 99 99 102 105 108 111 114 119 121 115 107 103 96 92 88 86 78 71 66 66 70 75 76 74 75 75
98 102 107 110 112 114 116 120 116 109 98 93 89 82 80 77 73 67 62 62 66 67 67 65 62 62 63
106 110 114 116 116 117 112 102 96 94 88 82 78 73 75 72 66 65 62 59 59 59 59 59 57 57 57
113 117 117 114 108 100 95 89 82 79 74 69 69 70 66 65 56 56 54 51 49 48 46 44 44 47 49
115 109 101 97 92 85 79 74 69 65 68 63 61 59 56 51 48 43 43 41 38 38 37 35 35 36 39
93 90 84 78 74 71 67 64 59 59 62 59 51 45 46 43 38 34 32 31 29 28 28 27 27 27 29
77 72 68 64 61 57 56 57 59 54 49 49 44 40 36 33 30 28 26 25 24 22 21 20 19 19 21
62 60 57 53 50 52 54 54 51 47 40 36 36 37 34 28 27 25 23 22 21 19 17 16 16 16 17
53 51 50 50 50 51 49 45 42 37 35 33 32 28 27 28 25 24 21 18 17 17 16 13 12 11 11
47 47 48 47 48 45 42 38 32 27 28 30 29 28 27 26 23 22 21 20 17 16 14 14 13 12 11

GFSFLT2_250_spd_057.txt.gz
Wind_Speed
80 81 84 86 89 91 89 84 82 86 89 89 90 90 90 89 87 89 92 92 92 92 92 92 92 92 92
82 86 85 87 89 88 88 88 90 93 94 94 96 94 92 93 95 97 98 95 92 91 90 90 91 92 94
83 89 86 84 84 86 90 94 96 99 100 98 98 99 101 103 100 96 96 96 96 95 96 98 99 100 102
81 84 84 86 88 92 95 99 102 105 105 104 104 104 102 102 103 103 101 100 100 100 101 102 104 106 109
82 84 88 91 94 97 100 102 104 106 106 106 104 107 111 110 106 105 102 96 95 94 94 96 98 101 106
85 87 91 95 99 102 102 103 107 108 102 110 113 118 117 113 108 98 93 89 86 85 85 87 89 90 92
87 91 95 99 100 103 104 102 106 110 108 117 121 121 115 106 95 89 86 83 78 76 75 75 77 79 81
90 93 97 99 99 101 105 108 112 117 112 117 115 103 97 92 83 78 79 74 69 66 66 66 66 67 68
94 96 96 101 103 107 109 113 116 115 101 97 96 90 84 77 70 68 70 72 64 62 60 59 59 61 63
93 98 102 105 108 110 112 107 96 94 88 84 79 73 74 68 61 66 66 66 59 56 53 52 51 51 52
99 103 105 108 110 106 95 89 82 78 73 72 70 66 62 66 63 60 57 59 51 50 47 43 41 41 42
103 105 107 102 93 87 80 74 68 65 63 60 63 63 61 57 52 51 47 49 45 42 40 37 36 35 36
104 98 89 82 76 71 65 62 56 54 55 58 58 57 51 49 41 40 40 32 37 32 31 29 29 30 30
87 79 75 68 62 59 56 52 50 50 50 49 48 45 40 40 30 34 30 31 26 28 24 23 23 24 25
74 68 62 56 50 49 51 50 51 51 46 40 36 32 31 34 30 30 29 29 27 26 23 20 20 19 19
64 58 52 46 44 45 49 48 45 40 38 35 31 27 25 28 30 30 30 27 26 25 23 22 20 18 17
54 50 45 40 44 45 45 42 36 32 29 30 28 27 26 26 26 26 25 24 23 22 20 20 20 19 17

GFSFLT2_250_spd_060.txt.gz
Wind_Speed
93 87 87 87 81 82 85 85 84 82 81 78 78 81 83 85 87 88 88 88 88 86 85 87 88 89 90
89 88 91 89 87 83 85 84 82 84 81 79 81 86 88 89 90 91 91 90 91 92 89 89 90 92 92
92 90 88 87 89 88 88 88 88 89 87 89 93 92 91 90 92 93 93 91 93 95 99 102 103 103 102
86 83 88 86 90 90 91 93 97 97 94 94 95 95 94 95 95 94 97 101 105 108 111 112 109 105 105
84 88 89 91 90 87 86 87 92 94 96 99 96 97 99 100 101 104 106 107 110 112 108 102 96 94 96
86 89 87 85 83 83 85 89 95 97 96 102 100 105 105 107 108 106 106 106 100 96 92 89 84 82 84
79 80 79 80 83 89 92 94 96 96 96 105 110 113 112 111 105 101 95 92 86 84 82 77 72 70 73
77 82 84 87 91 94 97 98 101 103 102 108 111 111 107 97 89 83 78 75 75 75 74 68 67 65 65
84 86 88 91 95 97 99 101 103 105 104 108 105 96 91 81 74 69 66 66 65 70 67 66 62 60 57
88 90 92 96 100 100 100 103 105 106 96 92 86 78 77 70 64 59 57 60 60 65 58 59 55 54 54
94 96 97 100 103 105 106 100 91 84 80 77 74 67 63 67 65 58 55 49 55 53 51 53 53 51 49
98 98 103 106 103 95 84 77 74 71 66 63 63 61 60 62 63 57 50 42 47 46 44 45 45 47 45
102 102 98 91 84 77 70 65 60 56 55 58 58 56 54 54 55 49 47 39 41 40 38 38 38 40 39
92 88 82 75 69 67 61 55 52 47 48 51 51 51 47 45 43 43 42 40 36 36 35 35 34 34 34
83 76 70 62 59 56 50 48 45 46 45 44 44 41 37 39 37 38 37 36 35 33 33 33 31 31 30
71 65 60 55 49 45 44 42 42 43 43 43 38 33 32 32 32 33 34 33 34 33 31 29 30 28 27
62 58 54 46 42 41 38 39 40 39 35 38 33 31 26 28 30 28 27 29 29 29 28 25 22 24 23

GFSFLT2_250_spd_063.txt.gz
Wind_Speed
101 104 104 105 104 106 107 106 105 102 98 95 91 86 83 82 81 80 79 78 78 79 82 85 86 89 88
97 98 101 103 105 104 106 108 103 100 92 89 85 84 82 83 85 86 89 87 84 85 87 90 91 90 91
94 95 99 103 105 106 103 103 99 95 92 89 86 84 82 81 81 82 83 85 87 90 93 93 94 94 94
90 94 97 98 100 99 96 93 91 91 88 88 86 82 82 81 83 84 86 88 89 92 95 97 100 102 101
86 88 90 93 93 93 92 91 89 83 81 83 80 84 85 85 84 83 86 90 93 97 99 102 104 104 102
80 82 85 75 77 76 76 76 80 83 85 90 87 90 89 90 91 91 93 96 99 101 102 102 99 95 91
61 63 66 70 75 78 80 83 86 89 90 97 93 96 95 95 94 95 96 96 95 92 88 86 84 82 78
62 67 72 77 81 85 88 90 92 95 97 102 100 101 101 94 91 89 85 81 78 78 76 74 72 71 68
69 75 80 85 89 93 97 98 100 101 99 101 99 98 92 80 78 75 72 69 67 64 63 64 66 63 61
76 80 86 91 95 99 101 103 104 103 101 99 86 77 81 71 67 62 58 56 55 56 59 61 60 59 55
84 87 91 95 100 104 106 105 99 91 85 82 80 72 65 65 57 50 50 50 52 53 51 50 50 48 48
88 92 96 97 97 97 93 89 85 77 72 70 69 64 58 53 54 48 48 46 46 42 40 40 42 44 45
88 86 86 89 88 87 82 77 72 65 61 60 58 55 50 50 54 50 47 36 37 36 36 38 39 41 41
77 82 85 83 80 75 70 65 63 58 48 49 49 47 48 48 48 44 37 37 33 36 35 37 37 35 36
81 81 79 73 67 63 62 60 56 48 40 40 42 44 46 42 36 34 33 34 36 34 32 31 33 35 32
79 77 70 63 61 58 54 49 45 39 37 38 40 41 36 33 30 31 32 32 31 31 32 31 30 32 32
72 66 62 59 55 48 42 39 38 34 34 38 40 35 29 27 29 29 27 29 28 28 28 28 29 28 29

GFSFLT2_250_spd_066.txt.gz
Wind_Speed
86 93 87 85 94 99 100 99 102 106 106 111 113 112 111 109 105 97 85 80 75 69 70 70 72 75 79
87 88 92 96 97 94 96 100 105 109 109 111 112 114 113 106 92 82 79 78 75 75 75 75 76 75 77
83 84 89 92 94 96 101 104 107 107 106 108 108 105 96 92 85 81 77 76 75 72 74 74 76 77 79
78 78 81 83 86 88 91 94 96 96 96 94 91 89 82 77 75 74 75 77 77 77 78 80 82 84 85
80 79 79 80 81 82 83 85 84 84 84 78 80 81 79 80 78 78 80 80 82 85 87 88 90 91 91
73 75 72 68 68 70 72 73 74 75 81 81 83 85 85 85 86 85 82 82 86 90 93 94 94 95 95
52 54 59 61 64 67 72 75 77 80 84 88 88 90 90 87 84 85 89 90 90 91 90 89 88 88 86
50 55 60 65 69 73 78 81 84 87 90 96 96 101 97 90 86 83 81 80 79 78 77 76 76 74 73
56 62 67 73 78 81 85 89 92 95 98 102 103 105 97 87 79 76 73 71 68 65 65 65 63 60 60
65 69 75 80 84 87 91 97 101 101 99 99 91 86 90 83 67 60 60 59 59 56 54 56 53 53 54
72 76 80 84 87 92 95 94 92 90 86 85 85 80 74 70 64 54 54 49 46 46 49 49 49 49 49
76 79 83 86 89 86 84 86 87 85 80 75 72 67 64 61 55 47 44 38 43 44 43 43 43 43 41
79 83 85 82 79 81 83 84 81 73 65 61 62 62 57 50 48 39 40 33 39 38 36 35 36 36 36
84 81 76 77 79 80 79 74 68 61 57 55 52 50 47 39 40 42 40 37 31 33 31 31 33 33 34
75 74 77 79 77 72 67 63 60 56 46 40 39 42 41 35 38 38 39 31 29 28 29 28 31 33 30
74 77 77 73 67 62 58 54 49 43 38 34 33 37 36 33 37 34 30 27 26 27 28 26 24 26 26
78 73 70 63 58 52 46 42 40 38 32 30 32 34 36 32 30 28 24 25 24 24 25 24 22 21 23

GFSFLT2_250_spd_069.txt.gz
Wind_Speed
89 87 84 87 88 89 90 89 92 97 101 103 103 105 104 103 108 108 104 107 108 110 112 108 98 88 83
86 88 85 75 82 84 86 89 90 93 94 99 101 103 105 107 108 109 112 113 111 108 102 95 87 79 78
79 83 82 82 76 76 80 86 84 86 91 99 102 105 104 104 102 99 98 97 95 93 89 81 76 72 69
57 68 77 79 82 84 85 84 83 87 92 94 97 94 93 93 93 92 89 86 82 81 81 80 79 78 77
43 50 58 66 73 78 81 84 85 86 86 86 89 87 84 81 80 80 80 81 82 83 85 86 86 84 84
30 38 46 53 59 62 65 69 72 77 78 79 80 81 83 84 84 85 85 85 86 88 87 87 88 90 92
29 33 38 44 49 55 60 64 67 73 76 78 83 85 86 87 89 90 89 89 86 83 83 85 86 85 86
35 39 43 48 53 57 63 67 70 75 81 83 86 89 92 93 94 93 89 80 76 78 82 81 78 75 76
48 51 54 59 64 68 72 75 78 80 85 89 90 95 98 94 88 79 76 74 73 76 73 68 66 66 64
57 60 64 67 70 74 78 79 83 85 87 91 91 89 89 84 80 76 72 67 61 64 64 62 59 58 57
65 68 71 73 75 77 80 84 86 85 79 78 78 76 78 83 80 69 62 56 54 57 56 52 50 48 47
70 72 75 77 78 79 78 77 75 74 74 74 77 74 72 71 69 62 58 52 47 46 43 43 43 44 45
72 75 74 72 70 71 74 76 77 73 69 67 65 65 64 62 63 53 49 42 35 36 39 37 39 41 39
74 72 70 73 76 78 77 74 70 64 60 58 57 57 57 52 49 43 38 38 31 31 38 34 35 34 31
74 70 74 77 79 77 72 64 59 55 49 47 46 47 47 43 40 34 35 33 34 34 32 27 29 29 26
72 72 78 79 77 71 62 56 52 48 43 39 39 42 42 37 34 32 35 35 31 30 27 24 24 25 24
70 74 78 76 73 63 57 52 47 43 39 37 35 36 37 34 23 32 38 31 26 25 25 22 19 22 22

GFSFLT2_250_spd_072.txt.gz
Wind_Speed
55 57 64 75 70 82 87 87 87 94 89 92 91 90 92 89 91 95 94 92 98 105 111 104 104 100 101
40 43 48 56 61 75 84 89 88 88 89 92 92 88 94 94 94 97 96 96 100 102 98 99 105 108 105
34 36 43 50 61 72 79 86 90 87 88 89 92 89 89 90 93 91 93 96 97 98 100 100 98 94 87
25 23 32 45 53 64 62 66 76 73 79 81 82 86 87 91 93 96 96 96 96 94 94 87 81 80 79
31 29 26 24 29 37 42 51 58 65 74 78 83 86 87 88 90 90 88 85 83 85 85 86 86 87 86
37 33 29 28 27 30 32 37 42 48 54 59 63 67 70 73 76 79 81 84 87 89 90 91 91 90 92
39 36 34 34 36 39 42 46 49 56 60 64 69 73 76 79 82 84 85 88 90 90 92 93 93 90 89
50 49 49 49 51 52 55 58 61 66 70 72 78 79 81 84 86 87 88 90 91 91 89 87 85 84 87
53 54 54 55 56 58 60 62 66 70 75 78 81 85 87 88 89 87 85 83 81 79 80 81 82 83 84
59 59 59 59 60 62 64 68 72 72 70 72 74 77 79 80 80 79 79 78 78 76 76 75 74 73 70
64 65 65 66 66 67 70 74 70 66 68 75 79 79 81 82 78 74 72 71 69 66 65 64 63 65 63
68 68 69 68 68 72 75 75 69 70 73 76 78 75 73 74 75 70 65 61 57 55 56 55 53 53 52
68 69 70 70 73 76 76 69 70 72 73 72 68 66 64 63 64 61 58 50 46 44 43 40 40 44 41
70 72 72 73 77 75 69 71 71 71 71 64 61 59 57 55 53 50 45 43 37 34 36 32 36 36 37
71 73 73 76 76 69 71 72 72 69 60 58 55 53 50 47 46 43 41 37 35 30 28 30 32 35 32
71 73 75 76 72 69 71 72 72 66 56 50 50 49 46 43 42 35 34 33 30 28 31 31 29 31 26
72 74 77 74 69 68 69 70 68 63 54 48 46 45 42 41 34 32 35 32 30 28 31 27 25 27 25

GFSFLT2_250_spd_075.txt.gz
Wind_Speed
72 74 72 61 48 43 46 53 73 80 83 81 86 85 88 87 89 88 90 95 95 96 100 93 90 91 93
70 68 65 62 47 32 29 40 55 81 85 82 86 90 93 93 96 94 95 97 98 101 107 100 94 97 97
66 64 60 57 50 36 25 28 38 60 68 74 80 88 92 97 100 97 96 101 105 107 106 105 99 98 98
63 61 58 53 43 33 27 23 21 26 35 49 67 78 88 94 95 99 100 101 104 108 108 108 105 101 99
60 60 58 52 46 41 35 33 32 30 28 29 36 45 60 76 85 90 93 99 101 100 97 93 92 92 90
60 61 59 56 51 47 42 40 39 39 40 41 48 49 53 57 62 67 71 75 79 83 86 89 91 91 93
61 61 59 56 54 52 51 50 50 50 50 52 56 58 61 65 69 72 76 79 83 87 91 93 95 97 97
61 61 59 56 55 55 55 54 54 56 56 59 62 65 68 72 76 79 79 81 83 86 89 91 93 95 96
63 63 61 60 59 59 59 57 56 59 60 62 66 70 72 76 74 73 75 80 84 88 91 92 92 93 92
64 64 64 65 65 65 64 63 63 64 66 70 71 69 67 67 71 75 80 82 83 85 86 87 87 86 86
66 68 69 70 70 69 67 66 67 68 70 74 71 66 71 73 71 70 71 70 71 70 71 72 72 71 71
67 67 67 67 67 68 68 68 69 71 73 75 71 70 71 72 70 62 59 59 58 57 58 59 59 59 60
67 68 67 67 69 71 70 70 72 73 75 73 71 72 71 67 63 57 56 50 49 48 48 48 48 48 49
67 68 68 69 71 71 72 73 75 74 71 68 70 70 70 61 56 52 49 46 39 40 42 40 39 40 42
68 69 69 71 72 73 74 76 74 70 64 65 68 69 67 57 51 47 45 40 36 32 33 34 31 34 38
68 69 71 72 73 75 76 73 69 66 66 64 63 64 65 56 48 44 40 38 31 30 29 30 25 32 38
70 71 73 76 77 74 70 69 68 68 66 63 62 61 60 55 49 39 41 35 33 29 24 23 28 30 35

GFSFLT2_250_spd_081.txt.gz
Wind_Speed
87 77 70 64 57 56 58 59 60 60 57 56 48 38 31 27 33 45 56 62 67 67 66 76 76 70 69
78 71 63 57 57 58 57 59 59 58 54 48 45 40 33 28 26 39 47 56 67 69 72 71 70 78 76
71 64 57 58 59 59 60 60 59 56 53 49 43 39 38 36 34 38 43 50 56 56 71 74 78 79 87
65 58 57 58 58 59 61 61 59 56 54 52 48 44 41 38 38 44 47 48 54 57 63 69 73 79 80
59 57 59 58 60 60 60 59 59 58 56 55 53 51 48 46 46 46 48 52 55 56 60 61 64 70 78
57 59 59 60 60 60 60 58 58 58 57 58 57 55 53 52 53 54 55 56 57 59 61 64 68 69 71
58 59 60 60 58 59 59 60 60 61 61 62 61 60 59 57 56 55 55 57 61 64 67 68 68 69 71
59 60 59 58 59 61 62 63 64 66 66 66 65 63 61 60 59 59 60 62 63 64 65 67 69 71 72
59 57 58 59 61 63 65 66 68 70 71 70 66 63 61 60 61 61 62 63 64 64 67 68 71 73 74
56 57 60 62 65 66 68 71 72 73 73 71 65 63 63 63 63 62 61 62 63 66 68 67 67 65 65
57 61 64 67 69 71 74 75 75 76 73 67 66 66 66 65 64 63 63 61 61 62 61 62 63 63 62
61 64 67 69 72 75 77 78 78 76 71 70 70 68 68 65 63 58 59 59 60 60 61 62 61 59 61
65 67 70 74 76 78 79 81 78 73 72 72 70 67 65 64 64 58 55 55 56 58 60 62 59 57 58
68 71 74 75 77 80 81 79 74 73 73 71 68 67 65 62 61 60 56 54 49 51 57 59 57 55 56
71 72 74 77 80 81 79 75 76 74 69 69 67 65 64 62 59 56 54 52 49 50 52 55 54 52 52
71 74 77 80 81 76 74 75 73 72 70 65 63 64 63 60 57 58 54 52 50 51 50 52 53 48 45
75 78 81 81 75 73 74 71 72 71 67 64 62 61 60 59 60 56 57 54 51 50 47 46 49 48 39

GFSFLT2_250_spd_084.txt.gz
Wind_Speed
90 89 89 87 86 73 65 59 56 56 56 55 54 52 49 47 45 39 33 25 28 32 46 59 62 69 70
86 86 87 88 77 67 61 56 56 56 56 56 53 52 50 46 42 41 38 34 29 31 44 47 60 63 73
83 85 87 77 68 63 58 58 57 58 57 55 53 50 48 46 44 42 41 39 38 39 39 45 49 46 71
84 87 82 70 65 60 58 58 58 57 55 54 54 52 52 48 48 47 45 45 45 44 47 53 55 56 58
85 80 71 66 62 57 58 59 58 56 56 56 56 56 56 55 55 55 54 51 50 52 54 55 56 57 60
77 71 65 62 57 57 58 59 58 58 58 59 59 59 60 60 60 60 60 57 55 55 56 57 61 64 65
67 65 63 58 55 57 58 58 59 60 61 63 64 65 65 65 66 65 62 58 56 56 58 60 61 63 64
63 62 58 55 56 56 58 60 62 64 65 66 68 69 69 69 68 65 61 58 58 58 59 60 62 64 66
60 58 55 55 56 57 60 63 65 67 69 71 72 72 72 71 67 62 59 61 62 62 62 63 64 65 67
56 54 53 54 56 60 64 67 70 72 74 74 74 75 75 71 64 64 65 65 65 65 64 66 65 66 68
52 50 52 57 60 64 67 71 73 75 75 76 77 77 72 68 69 68 65 62 61 62 62 61 61 62 62
50 53 57 60 62 67 71 74 75 75 76 79 77 71 70 72 68 63 63 61 59 57 58 58 58 58 59
55 57 59 62 67 70 73 75 76 77 78 75 72 72 73 71 69 62 59 56 56 57 56 57 57 56 55
57 58 62 67 71 74 77 78 80 79 73 71 73 73 71 70 67 63 59 55 51 50 53 56 57 55 54
60 62 66 70 73 77 79 80 80 73 70 72 72 70 71 69 66 62 57 53 51 50 51 55 57 57 58
64 67 71 74 77 79 80 80 73 70 73 70 66 67 70 69 66 60 56 54 54 53 52 55 58 55 57
67 72 75 78 81 82 80 73 70 73 70 67 65 67 67 66 65 59 57 58 57 56 52 51 55 54 50

GFSFLT2_250_spd_087.txt.gz
Wind_Speed
106 96 94 94 88 83 82 83 81 72 60 56 53 50 50 50 47 45 42 41 39 34 29 26 24 38 59
93 93 91 84 84 80 82 83 74 62 58 53 50 50 50 46 45 44 43 40 39 38 34 29 30 29 44
90 89 83 83 80 81 84 76 65 59 55 53 51 51 49 48 47 46 45 44 42 40 39 38 35 38 44
84 81 82 79 80 83 75 67 61 58 55 53 52 51 50 51 52 51 50 49 48 46 45 44 44 44 46
79 79 78 79 80 80 69 62 60 55 53 54 53 52 54 54 55 55 56 54 52 51 49 49 49 50 52
75 75 77 81 80 68 65 61 57 53 54 53 54 56 58 59 60 62 61 58 56 56 55 52 50 50 53
74 78 81 69 66 64 60 56 53 53 52 56 58 61 63 64 65 65 64 63 62 60 55 51 48 49 51
77 73 66 63 62 59 54 52 50 53 57 60 62 64 67 68 68 68 69 69 65 59 53 51 52 54 56
65 62 60 59 55 51 50 50 55 58 60 63 66 69 70 70 71 72 70 64 58 56 57 58 59 59 59
60 56 54 51 49 48 52 56 58 61 63 68 70 72 73 72 72 67 61 58 60 61 58 57 57 58 59
54 52 50 48 49 52 56 58 60 64 69 71 74 76 75 75 67 61 60 61 61 59 58 57 54 54 55
48 47 49 51 53 57 59 60 63 68 72 75 77 79 76 70 64 63 64 62 61 60 58 56 54 54 54
47 49 52 55 58 60 61 63 67 71 75 77 80 79 73 67 67 66 62 60 59 61 59 57 54 52 51
50 53 57 60 60 62 63 67 70 74 77 80 80 73 67 69 69 65 61 60 58 58 58 56 55 54 52
54 56 60 62 62 63 66 69 74 78 80 81 75 69 72 70 67 64 61 59 57 57 56 57 56 56 58
56 59 60 62 64 66 69 73 77 80 82 79 72 73 71 69 66 63 60 58 57 57 57 59 60 53 54
61 62 62 64 66 69 73 77 80 83 81 72 73 70 67 67 68 63 61 56 56 58 58 57 57 51 49

GFSFLT2_250_spd_090.txt.gz
Wind_Speed
115 111 113 107 105 100 93 89 82 79 76 74 72 59 53 49 45 42 42 41 39 36 35 34 32 29 24
109 107 108 105 96 90 85 79 75 74 75 75 63 54 50 46 43 43 43 42 41 40 39 36 35 33 29
109 105 100 94 85 85 78 76 75 74 75 62 56 53 48 46 43 42 44 45 45 45 42 41 39 37 36
102 98 93 85 81 75 74 73 73 75 63 59 54 49 47 45 44 45 48 49 49 48 48 46 44 42 41
94 87 80 79 72 72 71 73 74 63 60 54 49 47 44 45 47 50 51 52 53 53 51 49 48 47 48
80 75 72 71 72 71 71 73 61 58 54 49 46 45 47 49 51 52 56 57 59 57 56 55 54 53 53
69 67 67 69 69 70 70 59 57 53 48 45 46 49 51 52 55 59 62 63 63 62 61 59 54 51 49
60 64 66 67 70 63 57 54 51 48 46 48 51 52 54 56 60 64 67 69 68 63 57 51 48 48 50
60 64 67 67 57 55 53 50 47 45 48 51 53 55 57 61 65 69 72 72 67 59 52 51 51 51 49
63 66 61 55 53 48 47 46 47 49 51 54 56 58 62 65 69 73 73 70 61 54 56 56 52 50 49
62 53 52 49 46 45 46 48 51 54 55 58 59 61 64 68 72 75 72 66 61 61 61 57 52 52 51
50 48 46 44 44 45 48 51 54 57 60 61 61 64 67 71 75 75 72 64 63 62 60 57 55 53 53
46 44 43 43 46 50 53 54 56 58 59 62 64 66 69 74 78 75 66 63 64 61 60 58 57 55 54
46 45 46 48 51 54 55 57 58 59 61 63 66 69 73 77 78 73 67 68 63 60 59 59 57 55 55
49 50 51 54 56 57 59 60 62 63 64 66 68 72 76 78 76 69 69 64 62 60 59 59 57 56 53
52 54 56 58 60 60 61 63 64 65 67 69 72 75 79 79 73 69 64 62 59 59 57 58 60 53 51
55 57 58 60 62 62 65 66 65 67 69 72 75 78 80 77 72 65 61 56 58 58 57 56 57 54 51

GFSFLT2_250_spd_093.txt.gz
Wind_Speed
110 113 114 109 110 110 108 107 100 97 86 79 73 69 67 68 56 49 43 40 37 35 34 33 35 35 34
108 107 109 108 106 105 98 99 90 82 75 71 68 68 69 57 51 45 40 36 35 34 36 36 37 38 38
105 107 107 104 101 99 92 88 77 72 70 66 68 66 59 53 46 41 37 36 36 38 39 40 41 41 41
101 102 100 95 94 90 79 76 69 67 65 66 66 62 53 45 40 37 37 39 39 40 43 45 47 47 46
96 94 90 87 84 77 71 68 62 61 65 66 61 51 46 41 38 38 40 40 41 44 47 51 53 55 54
91 89 82 76 72 66 64 59 60 62 65 62 52 45 42 39 41 42 42 42 45 49 53 57 60 60 57
82 78 73 68 63 60 57 60 61 63 60 53 45 42 41 43 45 46 46 47 50 54 58 62 64 60 52
74 69 65 60 53 53 57 62 63 57 52 45 43 43 44 46 48 49 50 51 55 58 62 66 66 55 46
65 59 55 49 50 57 61 59 54 50 46 43 43 46 48 49 52 55 56 57 59 61 65 67 61 51 48
53 47 47 49 53 56 54 51 46 45 45 44 45 49 52 55 56 56 57 60 62 65 68 67 58 52 51
46 45 49 52 57 58 50 46 45 43 43 47 49 51 55 56 58 58 59 62 65 68 71 67 59 55 51
45 47 50 53 55 50 45 42 44 46 48 50 52 55 57 59 60 59 61 64 68 71 72 64 59 56 51
46 49 53 53 46 46 46 47 48 50 53 54 55 57 59 61 61 60 63 66 70 73 69 63 60 56 53
50 51 49 45 46 48 50 51 52 54 55 56 58 60 62 62 63 65 67 70 74 72 66 62 58 57 55
50 45 45 46 49 50 51 54 55 56 56 58 61 63 65 65 67 68 72 75 75 67 62 60 57 55 56
44 46 47 50 51 53 56 58 59 59 60 62 64 66 67 67 70 72 75 77 70 65 62 61 59 56 55
46 49 51 54 57 59 61 63 63 63 65 66 67 68 69 71 73 74 78 71 66 63 59 55 59 58 55

GFSFLT2_250_spd_096.txt.gz
Wind_Speed
103 102 102 102 102 102 99 100 98 98 95 88 79 73 66 62 60 59 60 51 44 37 33 32 31 31 30
98 99 97 98 98 100 99 98 96 92 86 80 73 66 61 58 58 58 53 45 40 35 32 32 33 33 32
98 97 95 96 96 95 95 94 92 83 79 69 64 58 55 56 58 58 46 40 35 33 35 35 34 35 35
95 96 95 93 95 95 91 88 81 76 69 64 61 55 57 57 58 48 42 37 35 36 37 37 37 38 40
94 95 96 94 94 89 86 81 75 69 63 59 52 56 57 59 52 45 41 38 38 39 40 40 42 42 44
94 95 92 89 85 83 78 73 69 62 56 49 51 57 59 53 47 41 40 40 42 43 43 44 45 46 48
88 90 85 83 79 74 70 66 58 51 47 50 55 58 51 46 41 41 42 44 46 47 48 48 48 50 53
84 81 73 71 69 65 61 55 47 43 47 51 53 50 45 42 41 42 43 47 49 49 51 52 52 53 55
72 68 65 62 60 55 52 45 39 46 51 54 52 45 43 42 41 44 47 50 53 53 54 54 53 55 57
64 59 56 54 52 49 46 40 43 48 52 51 45 41 42 42 43 46 49 52 54 54 55 54 56 58 60
54 52 50 48 46 43 42 42 45 48 48 43 43 43 45 46 48 49 51 53 55 55 55 57 59 61 65
48 47 45 42 41 41 42 43 48 49 44 43 45 47 49 49 51 52 54 55 56 57 58 59 62 65 67
43 42 42 42 43 42 45 46 48 45 45 47 49 50 51 53 55 56 58 59 60 60 61 63 66 68 66
44 46 48 47 45 46 46 44 45 47 48 49 51 53 56 59 61 60 61 62 63 63 65 66 69 69 62
46 47 47 50 51 49 49 46 46 46 50 53 56 59 62 64 66 64 64 65 64 65 68 71 71 65 61
49 50 51 53 52 50 47 46 47 50 54 57 59 63 67 66 66 65 66 66 66 68 72 75 69 61 59
50 51 50 47 44 45 47 48 49 53 57 58 60 63 65 65 66 64 63 66 68 71 74 73 66 61 56

GFSFLT2_250_spd_099.txt.gz
Wind_Speed
97 98 97 98 97 95 94 90 90 88 87 85 86 85 80 76 70 62 58 51 49 48 43 37 31 28 28
93 92 94 94 93 91 88 87 86 85 83 84 84 78 74 69 65 57 51 49 49 49 40 36 32 31 32
93 93 91 90 88 87 87 85 83 84 85 84 79 75 70 64 59 53 50 48 51 43 37 35 33 34 35
90 90 90 90 88 87 86 84 85 86 82 79 77 70 64 59 52 47 48 51 48 41 37 36 37 37 37
92 91 91 90 89 87 87 86 84 80 80 75 68 64 57 51 45 45 49 48 43 38 37 38 39 40 41
94 94 94 91 90 86 84 81 79 75 69 66 61 55 49 45 41 44 46 42 38 39 39 42 43 43 42
94 92 89 86 84 82 80 74 69 66 62 57 50 45 43 39 44 46 43 38 38 39 39 42 44 46 47
85 83 82 80 77 73 70 66 62 58 53 46 42 41 37 42 44 45 39 38 37 39 41 44 46 48 50
80 78 76 73 68 66 62 57 52 50 45 41 39 37 39 41 43 40 36 38 40 42 44 46 48 49 50
67 65 62 61 58 56 52 49 46 45 42 40 39 36 39 42 40 39 40 41 43 45 46 48 51 51 51
55 52 51 49 49 49 47 44 42 39 39 39 37 38 42 41 40 41 43 44 46 48 50 53 53 54 54
42 40 41 43 43 43 41 40 38 38 39 37 37 40 42 41 42 44 46 48 51 53 57 58 58 58 57
34 35 37 37 38 37 38 38 39 42 39 41 42 42 43 44 44 45 49 52 55 59 61 61 59 61 59
35 35 36 36 36 38 39 42 44 44 43 45 43 44 45 44 45 49 53 57 60 63 61 60 62 60 60
37 36 37 38 39 42 42 43 45 48 49 50 48 47 46 47 50 52 56 57 61 63 62 62 60 60 63
40 41 42 43 44 44 46 48 50 52 51 50 47 47 48 48 52 55 57 58 62 61 62 59 59 62 65
42 42 44 45 45 46 47 48 48 42 40 42 43 46 48 50 54 56 57 60 60 58 57 59 61 63 65

GFSFLT2_250_spd_102.txt.gz
Wind_Speed
98 96 95 91 90 90 88 87 87 84 81 80 78 77 75 73 72 72 69 64 57 50 45 42 40 36 29
96 94 92 90 87 87 87 85 83 81 80 79 78 77 75 74 72 70 64 58 52 46 44 40 40 33 28
93 92 90 89 88 85 84 83 82 82 81 80 78 78 75 72 71 65 59 51 46 41 39 40 37 31 28
91 90 89 87 86 84 83 84 84 83 83 81 79 76 74 67 65 60 51 45 39 38 39 38 34 31 30
91 90 88 87 86 86 86 86 87 86 82 79 73 69 65 62 58 53 43 37 36 37 38 36 33 31 32
90 90 89 89 90 89 88 86 81 78 75 71 65 62 61 57 50 45 36 34 35 37 37 35 33 33 33
89 88 86 83 81 81 81 79 77 73 70 66 62 58 53 49 42 37 34 33 36 38 34 33 32 33 34
84 83 82 79 79 77 77 74 70 66 62 57 53 49 47 42 36 35 34 33 35 35 33 32 33 35 37
78 76 75 73 71 67 62 59 57 54 51 48 45 44 40 36 35 36 34 34 36 34 33 35 36 38 39
68 66 63 59 55 51 50 46 46 44 41 40 38 37 34 35 37 37 34 35 35 34 35 37 40 42 44
55 53 51 47 44 41 38 37 36 35 36 37 36 36 35 38 38 38 36 37 37 36 38 41 42 45 48
45 44 41 37 34 31 31 30 31 32 34 34 34 35 38 39 37 37 38 38 38 39 41 43 46 49 51
39 37 35 31 30 27 27 28 29 32 33 35 37 39 39 38 40 41 40 40 41 40 43 47 50 52 53
38 34 32 30 28 28 30 32 32 32 34 37 39 39 41 42 43 43 44 43 43 45 48 49 51 53 55
38 37 35 34 33 34 34 34 35 36 37 39 42 42 44 46 47 49 50 47 46 48 49 49 51 54 56
42 40 38 37 37 37 39 40 41 43 43 44 44 46 49 52 51 46 44 44 46 47 49 51 53 56 57
46 45 43 41 41 42 42 43 44 47 46 47 48 48 49 46 42 39 38 42 44 47 51 55 55 54 55

GFSFLT2_250_spd_105.txt.gz
Wind_Speed
105 103 101 99 97 96 94 91 88 86 82 80 77 75 73 70 69 68 68 67 65 61 55 50 43 37 34
108 105 104 102 99 95 91 87 86 84 81 78 76 72 70 71 70 71 67 65 63 57 52 46 40 34 32
106 103 101 99 96 91 89 88 85 82 79 75 74 73 73 73 71 70 67 63 55 52 46 40 33 32 32
102 98 96 94 93 91 89 86 83 81 78 77 77 76 75 72 70 66 59 56 50 47 40 34 31 32 31
94 92 91 90 89 86 83 82 81 79 78 77 75 73 69 67 63 59 55 50 46 42 36 31 31 31 30
86 85 85 84 83 81 79 77 75 74 74 73 70 67 65 62 59 56 51 48 42 37 32 32 33 32 30
82 81 81 79 78 77 75 74 73 71 70 70 64 62 60 57 53 48 45 42 36 33 32 34 34 32 30
78 77 76 75 73 71 69 68 66 63 63 57 57 55 51 48 45 43 41 37 34 34 35 35 33 32 31
75 74 73 70 68 65 59 54 52 50 49 48 46 44 42 41 38 37 36 36 35 36 37 35 33 32 31
71 69 67 63 57 52 49 46 44 43 41 39 37 36 35 34 33 32 33 35 36 38 38 36 33 33 33
63 63 58 52 49 45 43 40 37 36 33 32 32 30 29 30 30 32 34 36 38 40 39 37 35 35 37
58 53 48 45 43 40 37 34 30 29 29 29 28 28 29 32 34 37 37 39 42 41 42 41 39 39 40
49 47 44 42 39 37 33 30 28 27 27 27 28 30 32 33 35 36 39 42 42 40 42 44 43 42 42
46 45 44 40 37 34 34 31 30 29 28 29 30 32 34 36 37 39 41 42 42 45 46 44 45 46 46
47 46 45 43 40 37 36 36 35 33 32 33 36 36 37 37 40 42 43 46 49 49 50 50 51 50 48
49 48 47 46 44 41 39 39 38 38 37 40 42 44 45 44 44 46 49 49 51 51 53 52 48 46 44
50 49 48 47 46 46 45 44 42 41 42 44 44 45 46 45 48 52 49 50 52 52 48 44 41 43 44

GFSFLT2_250_spd_108.txt.gz
Wind_Speed
132 126 121 113 110 108 105 103 100 97 91 86 82 79 77 75 71 67 65 62 59 58 59 59 56 53 48
118 116 111 109 107 103 100 98 94 89 86 83 80 78 75 73 70 68 65 63 62 62 59 56 55 49 43
118 114 109 105 102 98 95 91 87 84 82 80 78 74 73 70 68 66 66 64 62 61 60 55 49 44 40
114 108 104 99 95 91 87 84 81 79 77 76 74 70 68 67 66 65 64 63 62 59 57 52 46 40 37
106 99 95 91 88 84 82 80 78 75 74 72 70 68 67 66 65 62 61 60 57 54 53 49 44 39 36
96 93 90 86 83 80 79 77 74 72 71 69 68 66 64 63 62 61 58 57 54 52 49 47 41 38 36
92 90 88 84 81 78 76 74 71 68 65 62 61 59 59 57 57 52 52 52 49 47 45 41 39 38 38
91 88 85 80 77 74 72 68 63 59 54 50 48 47 46 46 47 47 46 44 42 42 41 39 39 39 39
85 83 80 76 73 71 65 59 55 48 46 44 41 40 39 39 38 37 38 38 39 40 40 39 40 40 41
81 77 75 71 67 63 60 54 48 44 42 40 38 36 35 34 35 34 34 36 38 39 40 39 41 41 41
74 71 69 65 60 58 55 49 43 41 38 35 33 30 30 30 30 31 34 36 37 38 39 40 41 42 42
69 66 62 60 56 52 48 44 42 39 34 31 29 27 26 26 28 30 32 35 36 38 39 40 41 43 43
62 59 56 53 50 47 44 42 41 37 34 31 29 27 27 28 29 32 34 35 36 40 42 41 42 44 45
57 54 51 49 47 46 44 42 40 37 35 33 31 30 30 30 30 31 33 38 39 40 40 43 46 47 46
53 52 51 50 49 47 46 44 41 39 38 36 36 35 35 33 33 35 36 38 40 43 45 46 47 49 49
53 51 50 50 49 48 47 46 45 42 42 40 38 38 40 40 39 39 41 43 44 46 47 48 49 50 53
50 49 48 48 48 47 47 47 46 46 45 47 45 43 41 40 40 43 46 48 50 52 53 52 51 56 57

GFSFLT2_250_spd_111.txt.gz
Wind_Speed
122 131 140 141 141 145 142 129 116 103 91 83 79 76 73 70 66 63 60 58 57 53 52 50 47 45 45
138 142 141 144 147 144 132 117 106 93 86 81 76 73 71 68 65 60 58 56 55 52 51 50 47 45 46
143 147 149 149 147 133 127 104 94 88 84 81 77 73 70 67 63 60 56 54 53 52 51 52 50 49 48
151 152 152 146 137 128 106 96 90 85 83 79 74 72 70 66 62 59 56 54 53 53 55 52 52 50 49
156 156 151 142 128 110 99 92 89 86 80 76 72 69 65 63 60 57 55 52 50 52 54 54 53 51 48
159 161 142 129 109 100 96 91 89 84 79 74 69 64 60 57 55 53 52 50 49 51 51 56 51 49 47
159 145 123 106 99 94 92 89 84 80 74 69 62 57 51 46 44 43 43 44 46 46 49 50 49 46 43
136 116 107 100 94 91 88 84 80 74 69 62 55 48 43 40 39 37 37 37 37 40 43 44 42 42 39
113 107 101 94 91 88 83 80 74 69 63 56 49 43 41 39 36 35 33 32 32 34 34 36 38 39 37
107 99 95 91 87 82 76 72 67 62 57 49 44 41 39 36 33 29 30 31 32 33 34 35 37 37 38
97 93 89 86 79 73 68 64 60 55 51 44 40 38 36 33 29 27 27 29 29 31 33 34 36 38 39
89 86 81 75 70 66 61 56 53 48 45 40 38 36 33 30 29 26 25 24 24 27 30 33 35 38 39
80 76 72 68 63 58 55 51 47 43 41 38 38 36 32 29 27 26 25 25 25 27 29 31 33 35 36
71 68 65 61 57 54 50 47 44 41 40 38 38 37 35 30 28 27 27 29 30 31 32 33 33 35 39
64 62 58 55 52 50 47 46 44 42 40 40 40 39 38 36 32 31 31 31 31 32 34 36 38 41 42
59 56 54 51 49 48 47 46 45 44 43 43 43 43 41 40 38 37 37 37 38 37 37 38 38 41 43
54 52 51 49 48 48 47 46 45 44 44 44 44 44 44 43 44 45 44 43 42 42 41 43 43 45 47

GFSFLT2_250_spd_114.txt.gz
Wind_Speed
108 116 111 122 118 130 135 137 135 140 142 145 147 110 93 80 72 64 60 54 50 48 44 41 40 41 40
116 115 116 120 130 137 140 140 141 147 146 143 147 106 92 81 71 65 60 54 51 47 45 41 40 40 35
119 126 128 129 138 139 137 139 143 144 148 145 128 100 91 78 71 66 60 53 47 45 44 42 42 41 35
128 133 136 141 141 142 144 142 147 143 150 151 110 95 86 79 71 62 56 49 44 44 44 43 44 43 40
133 136 141 146 144 144 140 149 150 146 153 111 100 91 85 77 66 58 50 47 41 40 42 45 45 46 48
136 139 146 148 145 152 154 154 147 153 132 106 91 88 82 72 62 51 45 39 37 36 39 44 46 49 50
144 143 150 147 152 158 157 155 138 136 102 90 86 83 76 67 57 47 40 37 34 33 35 40 43 46 50
150 153 151 158 163 170 158 147 135 107 91 84 80 75 68 60 52 44 38 34 30 29 32 35 38 45 45
156 156 158 151 160 141 122 116 103 89 84 78 73 68 61 54 47 40 36 32 30 28 29 31 37 41 45
160 164 166 157 144 126 107 101 88 83 77 71 65 60 52 48 41 36 33 29 27 27 27 30 34 38 40
167 170 160 143 124 109 94 85 81 75 68 62 56 52 47 42 36 32 29 28 27 25 26 27 31 33 36
144 135 128 114 98 90 84 79 73 66 60 54 50 46 43 37 33 31 29 26 25 24 24 24 26 29 31
130 110 99 92 86 79 74 70 64 59 53 49 45 42 39 36 32 30 29 27 25 23 23 24 24 26 29
99 90 83 79 75 71 67 62 58 53 49 45 42 40 37 36 34 31 30 28 26 26 24 23 24 25 26
81 77 74 70 67 64 60 58 53 49 46 44 42 40 38 38 36 34 31 32 30 29 27 27 28 29 30
71 69 65 62 61 59 55 52 49 46 44 43 42 41 40 40 38 38 37 35 37 36 34 32 32 33 36
63 60 58 57 56 52 50 48 46 45 43 42 41 40 40 39 41 41 42 41 40 41 40 39 38 39 40

GFSFLT2_250_spd_117.txt.gz
Wind_Speed
93 96 98 101 97 104 99 113 115 116 125 134 136 142 143 145 148 125 96 81 65 55 47 42 40 39 38
96 98 98 98 104 109 116 118 128 126 129 136 145 143 147 146 155 117 93 75 63 51 43 40 39 38 38
99 96 101 112 112 116 119 121 126 136 134 139 150 146 152 148 129 101 90 75 58 49 41 38 38 39 39
103 107 110 112 117 125 129 135 130 143 139 145 145 148 155 123 107 94 77 70 54 44 38 34 34 38 40
113 114 116 125 123 128 133 139 139 143 147 149 141 150 129 115 95 83 73 64 50 41 35 31 32 40 44
117 115 125 142 137 138 134 140 142 149 149 148 153 139 110 93 86 73 65 57 48 40 34 32 31 39 46
121 140 141 134 138 143 138 141 144 148 152 143 130 111 101 89 73 64 59 53 44 39 34 32 33 36 46
134 141 140 134 140 138 142 150 150 140 153 144 120 98 88 76 66 58 53 48 42 37 34 31 31 34 40
145 140 137 135 143 147 153 156 147 145 151 127 112 92 78 66 57 51 48 44 40 35 33 31 30 32 37
136 144 144 151 155 150 150 142 146 145 135 107 91 78 68 58 50 46 44 41 36 33 32 29 29 30 34
145 148 152 161 157 153 146 146 140 116 102 88 77 68 60 51 45 42 40 38 33 31 30 29 28 30 32
160 154 153 149 145 140 137 140 107 101 85 75 68 61 53 48 43 39 37 35 32 31 29 27 28 29 33
148 134 138 124 135 124 125 109 90 78 72 66 60 54 49 45 42 38 36 34 32 31 30 28 27 28 30
142 133 136 126 113 101 88 80 74 67 64 59 54 50 45 44 42 38 36 34 33 33 32 30 29 28 29
140 128 103 92 85 76 71 67 63 61 58 54 50 46 43 42 41 39 37 36 36 35 35 33 30 30 29
103 88 78 74 66 63 62 60 58 57 54 50 46 43 41 40 39 39 38 38 39 39 38 36 34 33 33
75 68 63 60 58 56 57 56 56 54 50 46 43 40 39 38 39 39 40 40 41 41 41 41 39 39 38

GFSFLT2_250_spd_120.txt.gz
Wind_Speed
95 91 90 96 96 93 99 105 101 102 103 107 107 110 120 134 129 127 134 138 128 85 66 54 43 34 28
95 91 94 99 107 102 100 101 101 102 103 110 112 112 129 133 128 129 135 137 104 77 60 50 41 32 27
97 94 98 104 108 108 105 105 102 107 111 118 124 129 132 129 127 137 141 117 85 69 55 46 36 31 26
102 103 102 107 109 107 104 107 105 113 109 122 133 124 134 127 137 141 130 113 76 64 54 41 33 28 27
99 106 109 112 109 108 108 112 116 124 127 129 133 127 140 142 138 134 120 86 69 60 48 38 32 27 28
107 104 107 105 112 116 116 119 115 126 128 142 137 138 145 144 137 125 115 88 59 54 46 36 31 27 31
109 109 119 115 118 119 120 125 127 138 142 137 142 147 145 132 115 122 84 61 56 49 42 34 31 29 32
116 116 120 120 125 127 125 126 138 139 144 152 151 148 129 121 123 90 67 54 49 46 38 32 31 30 30
116 123 123 123 130 128 134 135 146 150 148 158 140 125 126 112 104 74 56 50 45 41 36 32 29 29 29
128 130 129 127 136 133 136 140 151 155 144 132 129 107 112 105 77 58 50 45 40 37 34 31 30 27 28
132 132 136 139 142 142 146 145 149 138 133 124 107 105 102 88 62 51 46 41 37 35 31 30 31 29 27
141 144 147 149 156 151 144 141 134 122 115 110 104 82 75 65 52 47 43 38 35 33 31 31 31 30 30
152 158 148 148 142 137 142 136 128 99 118 107 80 68 59 53 47 43 41 38 35 34 32 31 31 32 31
157 157 143 137 132 120 121 117 97 99 82 78 67 59 51 46 43 42 39 38 36 36 35 34 33 32 32
145 135 134 130 131 115 103 90 78 73 68 61 57 53 48 43 42 41 38 37 38 37 37 37 36 36 34
137 133 122 108 95 87 78 68 63 59 57 55 52 49 47 43 41 39 38 37 38 38 39 39 40 40 38
104 93 86 80 72 65 59 55 53 53 52 50 48 47 44 43 40 37 37 38 39 39 40 42 42 43 43